Location: Burbank
(38.7788°N, 114.0429°W)
Time: 03:10:47
(UTC+00:00)

ACS3 Solar Sail - Visible Passes

Search period start: 15 April 2026 00:00
Search period end: 25 April 2026 00:00
Orbit: 871 x 977 km, 97.2° (Epoch: 14 April)

Date Brightness Start Highest point End Pass type
(mag) Time Alt. Az. Time Alt. Az. Time Alt. Az.
15 Apr 3.0 08:44:39 10° NNE 08:48:08 37° NNE 08:48:08 37° NNE visible
15 Apr 3.6 10:28:58 10° NNW 10:31:42 15° NW 10:31:42 15° NW visible
16 Apr 2.8 08:54:24 10° N 08:58:07 40° N 08:58:07 40° N visible
16 Apr 3.8 10:39:28 10° NW 10:41:41 13° WNW 10:41:41 13° WNW visible
17 Apr 4.2 07:23:41 10° NE 07:24:31 12° ENE 07:24:31 12° ENE visible
17 Apr 2.7 09:04:11 10° N 09:08:05 42° N 09:08:05 42° N visible
17 Apr 3.9 10:50:57 10° NW 10:51:32 10° WNW 10:51:39 10° WNW visible
18 Apr 4.0 07:32:49 10° NE 07:34:28 15° ENE 07:34:28 15° ENE visible
18 Apr 2.7 09:13:59 10° N 09:18:02 41° NNW 09:18:02 41° NNW visible
19 Apr 3.8 07:42:08 10° NE 07:44:25 19° ENE 07:44:25 19° ENE visible
19 Apr 2.7 09:23:49 10° N 09:27:59 39° NNW 09:27:59 39° NNW visible
20 Apr 3.6 07:51:33 10° NNE 07:54:22 23° NE 07:54:22 23° NE visible
20 Apr 2.8 09:33:41 10° N 09:37:56 35° NW 09:37:56 35° NW visible
21 Apr 3.4 08:01:03 10° NNE 08:04:19 28° NE 08:04:19 28° NE visible
21 Apr 2.9 09:43:37 10° N 09:47:53 30° NW 09:47:53 30° NW visible
22 Apr 3.1 08:10:36 10° NNE 08:14:15 33° NE 08:14:15 33° NE visible
22 Apr 3.1 09:53:34 10° NNW 09:57:48 26° NW 09:57:48 26° NW visible
23 Apr 2.9 08:20:11 10° NNE 08:24:10 39° NE 08:24:10 39° NE visible
23 Apr 3.3 10:03:36 10° NNW 10:07:44 22° WNW 10:07:44 22° WNW visible
24 Apr 2.6 08:29:49 10° NNE 08:34:05 46° NNE 08:34:05 46° NNE visible
24 Apr 3.4 10:13:42 10° NNW 10:17:39 18° WNW 10:17:39 18° WNW visible
